Szeged, Hungary

11:09 PM CET on December 06, 2016 (GMT +0100)
Szeged

Weather History for LHUD - October, 2012

Change the Weather History Date:

Friday, October 5, 2012

  Actual Average (LRAR) Record (LRAR)
Temperature  
Mean Temperature 61 °F -  
Max Temperature 70 °F 68 °F 80 °F (2011)
Min Temperature 50 °F 47 °F 30 °F (2013)
Degree Days  
Heating Degree Days 4    
Growing Degree Days 11 (Base 50)    
Moisture  
Dew Point 43 °F    
Average Humidity 56    
Maximum Humidity 88    
Minimum Humidity 22    
Precipitation  
Precipitation 0.00 in - - ()
Sea Level Pressure  
Sea Level Pressure 30.13 in    
Wind  
Wind Speed 6 mph ()    
Max Wind Speed 15 mph    
Max Gust Speed 23 mph    
Visibility 7.0 miles    
Events      
Averages and records for this station are not official NWS values.
T = Trace of Precipitation, MM = Missing Value Source: Averaged Metar Reports

Daily Weather History Graph

Daily Weather History Graph

Search for Another Location

Airport or City:

Trip Planner

Search our weather history database for the weather conditions in past years. The results will help you decide how hot, cold, wet, or windy it might be!

Date:

Astronomy

Oct. 05, 2012 Rise Set
Actual Time 6:43 AM CEST 6:11 PM CEST
Civil Twilight 6:13 AM CEST 6:41 PM CEST
Nautical Twilight 5:38 AM CEST 7:16 PM CEST
Astronomical Twilight 5:03 AM CEST 7:51 PM CEST
Moon 9:03 PM CEST (10/5) 11:52 AM CEST (10/5)
Length of Visible Light 12h 27m
Length of Day
11h 27m
Waning Gibbous, 76% of the Moon is Illuminated
Oct 5
Waning Gibbous
Oct 8
Last Quarter
Oct 15
New
Oct 22
First Quarter
Oct 29
Full

Hourly Weather History & Observations

Time (CEST) Temp. Dew Point Humidity Pressure Visibility Wind Dir Wind Speed Gust Speed Precip Events Conditions
12:45 AM 55.4 °F 51.8 °F 88% 30.01 in - SSW 2.3 mph - N/A   Clear
1:45 AM 55.4 °F 51.8 °F 88% 30.04 in - South 1.2 mph - N/A   Clear
2:00 AM 55 °F 51 °F 84% 30.03 in 7 mi South 2.2 mph - -   Partly Cloudy
2:45 AM 55.4 °F 51.8 °F 88% 30.04 in - South 3.5 mph - N/A   Clear
3:45 AM 55.4 °F 51.8 °F 88% 30.04 in - WSW 3.5 mph - N/A   Clear
4:45 AM 57.2 °F 51.8 °F 82% 30.06 in - NW 9.2 mph - N/A   Clear
5:45 AM 57.2 °F 51.8 °F 82% 30.06 in - NW 10.4 mph - N/A   Clear
6:15 AM 55.4 °F 50.0 °F 82% 30.09 in - NW 10.4 mph - N/A   Clear
6:45 AM 55.4 °F 50.0 °F 82% 30.09 in - NW 10.4 mph - N/A   Clear
7:15 AM 55.4 °F 48.2 °F 77% 30.09 in - NW 9.2 mph - N/A   Clear
7:45 AM 55.4 °F 46.4 °F 72% 30.12 in - NW 10.4 mph - N/A   Clear
8:00 AM 55 °F 47 °F 66% 30.12 in 25 mi NW 8.9 mph - -   Partly Cloudy
8:15 AM 55.4 °F 46.4 °F 72% 30.12 in - NW 5.8 mph - N/A   Clear
8:45 AM 57.2 °F 46.4 °F 67% 30.12 in - NW 9.2 mph - N/A   Clear
9:15 AM 59.0 °F 44.6 °F 59% 30.15 in - NW 15.0 mph - N/A   Clear
9:45 AM 62.6 °F 41.0 °F 45% 30.15 in - NNW 12.7 mph - N/A   Clear
10:15 AM 62.6 °F 39.2 °F 42% 30.18 in - NNW 13.8 mph - N/A   Clear
10:45 AM 62.6 °F 39.2 °F 42% 30.18 in - NNW 13.8 mph - N/A   Clear
11:15 AM 64.4 °F 39.2 °F 40% 30.18 in - NNW 11.5 mph - N/A   Clear
11:45 AM 64.4 °F 41.0 °F 42% 30.18 in - WNW 11.5 mph - N/A   Clear
12:15 PM 66.2 °F 35.6 °F 32% 30.18 in - NW 9.2 mph - N/A   Clear
12:45 PM 66.2 °F 35.6 °F 32% 30.18 in - NW 9.2 mph 23.0 mph N/A   Clear
1:15 PM 68.0 °F 37.4 °F 33% 30.18 in - NW 8.1 mph - N/A   Clear
1:45 PM 68.0 °F 37.4 °F 33% 30.18 in - NNW 5.8 mph - N/A   Clear
2:00 PM 68 °F 38 °F 22% 30.16 in 37 mi NNW 6.7 mph - -   Partly Cloudy
2:15 PM 68.0 °F 33.8 °F 28% 30.15 in - WNW 5.8 mph - N/A   Clear
2:45 PM 69.8 °F 30.2 °F 23% 30.15 in - NNW 4.6 mph - N/A   Clear
3:15 PM 69.8 °F 33.8 °F 27% 30.15 in - WSW 3.5 mph - N/A   Clear
3:45 PM 69.8 °F 30.2 °F 23% 30.15 in - WNW 5.8 mph - N/A   Clear
4:15 PM 69.8 °F 32.0 °F 25% 30.15 in - West 4.6 mph - N/A   Clear
4:45 PM 69.8 °F 32.0 °F 25% 30.15 in - WNW 4.6 mph - N/A   Clear
5:15 PM 68.0 °F 37.4 °F 33% 30.15 in - WNW 5.8 mph - N/A   Clear
5:45 PM 68.0 °F 39.2 °F 35% 30.15 in - WNW 2.3 mph - N/A   Clear
6:15 PM 64.4 °F 39.2 °F 40% 30.15 in - WSW 2.3 mph - N/A   Clear
6:45 PM 60.8 °F 42.8 °F 52% 30.15 in - SW 2.3 mph - N/A   Clear
7:15 PM 57.2 °F 44.6 °F 63% 30.15 in - South 1.2 mph - N/A   Clear
7:45 PM 57.2 °F 44.6 °F 63% 30.15 in - South 2.3 mph - N/A   Clear
8:00 PM 57 °F 45 °F 54% 30.16 in 28 mi South 2.2 mph - -   Partly Cloudy
8:15 PM 55.4 °F 46.4 °F 72% 30.15 in - South 2.3 mph - N/A   Clear
8:45 PM 55.4 °F 42.8 °F 63% 30.15 in - South 4.6 mph - N/A   Clear
9:15 PM 53.6 °F 44.6 °F 72% 30.15 in - South 4.6 mph - N/A   Clear
9:45 PM 55.4 °F 44.6 °F 67% 30.15 in - South 3.5 mph - N/A   Clear
10:45 PM 53.6 °F 44.6 °F 72% 30.15 in - South 5.8 mph - N/A   Clear
11:45 PM 50.0 °F 44.6 °F 82% 30.15 in - SSE 1.2 mph - N/A   Clear